Find Tongxin Jishu Shiyan 6

NORAD ID: 47613 Int'l Des: 2021-010 Owner: CASC Country: CN operational
HEOCIRCULARGSO

現在のビュー

3D地球を読み込み中...

Tongxin Jishu Shiyan 6について

説明を読み込み中...

次回通過

Passes for default location (London). Set your location on the main map for personalized predictions.

高度履歴

Loading altitude history...

軌道要素

1 47613U 21010A 26151.54072499 .00000055 00000-0 00000+0 0 9999
2 47613 0.5590 87.7820 0002642 334.6450 199.7701 1.00271821 19649
Epoch: May 31, 2026 • Age: 7 hours

現在のステータス

高度 35780.9 km
速度 3.08 km/s
衛星直下点 -0.54°S, 178.46°E
打ち上げ日 Feb 4, 2021
運用期間 5.3 years
タイプ other

技術仕様

分類 Payload
質量 4000.00 kg
乾燥質量 2500.00 kg
総質量 4000.00 kg
長さ 5.00 m
直径 2.50 m
スパン 30.00 m
形状 Box+ 2 panels
製造者 SISE
バスタイプ FY-4
フェーズステータス In Orbit
所有者/国 CASC/CN

Most Searched